time,lasttime,lat,lng,speed,course,altitude,comment
2016-10-03 13:04:36,2016-10-03 13:04:36,35.19946,-106.59368,0,133,1534.00,"ELDORADO AIO 10/03/2016 NSC SEC"
2016-10-03 13:06:36,2016-10-03 13:20:34,35.19943,-106.59366,0,133,1544.00,"ELDORADO AIO 10/03/2016 NSC SEC"
2016-10-03 15:16:19,2016-10-03 15:16:19,35.19945,-106.59368,0,135,1546.00,"ELDORADO AIO 10/03/2016 NSC SEC"
2016-10-03 15:20:18,2016-10-03 15:20:18,35.19946,-106.59367,0,346,1549.00,"ELDORADO AIO 10/03/2016 NSC SEC"
2016-10-03 15:24:18,2016-10-03 15:24:18,35.19947,-106.59366,0,95,1554.00,"ELDORADO AIO 10/03/2016 NSC SEC"
2016-10-03 15:26:16,2016-10-03 15:26:16,35.20791,-106.59115,48,28,2131.00,"ELDORADO AIO 10/03/2016 NSC SEC"
2016-10-03 15:28:16,2016-10-03 15:28:16,35.21813,-106.57947,44,53,2697.00,"ELDORADO AIO 10/03/2016 NSC SEC"
2016-10-03 15:30:16,2016-10-03 15:30:16,35.22721,-106.56149,56,58,3235.00,"ELDORADO AIO 10/03/2016 NSC SEC"
2016-10-03 15:32:15,2016-10-03 15:32:15,35.23645,-106.54319,59,64,3680.00,"ELDORADO AIO 10/03/2016 NSC SEC"
2016-10-03 15:34:15,2016-10-03 15:34:15,35.24394,-106.52116,65,71,4188.00,"ELDORADO AIO 10/03/2016 NSC SEC"
2016-10-03 15:36:15,2016-10-03 15:36:15,35.25070,-106.49949,61,74,4706.00,"ELDORADO AIO 10/03/2016 NSC SEC"
2016-10-03 15:38:15,2016-10-03 15:38:15,35.25847,-106.47825,63,70,5129.00,"ELDORADO AIO 10/03/2016 NSC SEC"
2016-10-03 15:40:15,2016-10-03 15:40:15,35.26525,-106.45350,72,75,5391.00,"ELDORADO AIO 10/03/2016 NSC SEC"
2016-10-03 15:42:14,2016-10-03 15:42:14,35.27097,-106.42719,57,75,5590.00,"ELDORADO AIO 10/03/2016 NSC SEC"
2016-10-03 15:44:14,2016-10-03 15:44:14,35.27825,-106.40607,57,59,6036.00,"ELDORADO AIO 10/03/2016 NSC SEC"
2016-10-03 15:46:14,2016-10-03 15:46:14,35.28864,-106.38574,72,64,6724.00,"ELDORADO AIO 10/03/2016 NSC SEC"
2016-10-03 15:48:14,2016-10-03 15:48:14,35.29546,-106.35843,102,80,7446.00,"ELDORADO AIO 10/03/2016 NSC SEC"
2016-10-03 15:50:13,2016-10-03 15:50:13,35.29834,-106.32225,98,80,7869.00,"ELDORADO AIO 10/03/2016 NSC SEC"
2016-10-03 15:52:13,2016-10-03 15:52:13,35.30169,-106.28766,91,83,8161.00,"ELDORADO AIO 10/03/2016 NSC SEC"
2016-10-03 15:54:13,2016-10-03 15:54:13,35.30705,-106.25434,94,80,8671.00,"ELDORADO AIO 10/03/2016 NSC SEC"
2016-10-03 15:56:13,2016-10-03 15:57:35,35.31534,-106.22298,93,63,9391.00,"ELDORADO AIO 10/03/2016 NSC SEC"
2016-10-03 15:58:12,2016-10-03 15:58:12,35.32802,-106.19416,102,63,9992.00,"ELDORADO AIO 10/03/2016 NSC SEC"
2016-10-03 16:00:12,2016-10-03 16:00:12,35.34069,-106.15889,119,63,10515.00,"ELDORADO AIO 10/03/2016 NSC SEC"
2016-10-03 16:02:12,2016-10-03 16:02:12,35.35612,-106.11788,146,65,10967.00,"ELDORADO AIO 10/03/2016 NSC SEC"
2016-10-03 16:04:12,2016-10-03 16:04:12,35.37270,-106.06575,156,67,11332.00,"ELDORADO AIO 10/03/2016 NSC SEC"
2016-10-03 16:06:12,2016-10-03 16:06:12,35.39295,-106.00920,172,66,11799.00,"ELDORADO AIO 10/03/2016 NSC SEC"
2016-10-03 16:08:12,2016-10-03 16:08:12,35.41486,-105.94179,198,68,12312.00,"ELDORADO AIO 10/03/2016 NSC SEC"
2016-10-03 16:10:12,2016-10-03 16:10:12,35.43778,-105.87145,198,66,12721.00,"ELDORADO AIO 10/03/2016 NSC SEC"
2016-10-03 16:12:13,2016-10-03 16:12:13,35.46114,-105.80791,174,69,13123.00,"ELDORADO AIO 10/03/2016 NSC SEC"
2016-10-03 16:14:13,2016-10-03 16:14:13,35.48172,-105.74719,169,67,13703.00,"ELDORADO AIO 10/03/2016 NSC SEC"
2016-10-03 16:16:13,2016-10-03 16:16:13,35.49919,-105.69285,131,65,14229.00,"ELDORADO AIO 10/03/2016 NSC SEC"
2016-10-03 16:18:13,2016-10-03 16:19:31,35.51699,-105.65464,122,61,14669.00,"ELDORADO AIO 10/03/2016 NSC SEC"
2016-10-03 16:20:13,2016-10-03 16:20:13,35.53091,-105.61986,83,53,15198.00,"ELDORADO AIO 10/03/2016 NSC SEC"
2016-10-03 16:22:13,2016-10-03 16:22:13,35.54462,-105.60111,63,43,15783.00,"ELDORADO AIO 10/03/2016 NSC SEC"
2016-10-03 16:24:14,2016-10-03 16:24:14,35.55868,-105.57974,81,66,16260.00,"ELDORADO AIO 10/03/2016 NSC SEC"
2016-10-03 16:26:14,2016-10-03 16:26:14,35.56376,-105.55408,72,66,16764.00,"ELDORADO AIO 10/03/2016 NSC SEC"
2016-10-03 16:28:14,2016-10-03 16:28:14,35.57645,-105.53060,67,43,17278.00,"ELDORADO AIO 10/03/2016 NSC SEC"
2016-10-03 16:30:15,2016-10-03 16:30:15,35.59387,-105.51774,70,27,17761.00,"ELDORADO AIO 10/03/2016 NSC SEC"
2016-10-03 16:32:15,2016-10-03 16:32:15,35.60988,-105.50062,65,47,18227.00,"ELDORADO AIO 10/03/2016 NSC SEC"
2016-10-03 16:34:15,2016-10-03 16:34:15,35.61429,-105.48244,35,79,18779.00,"ELDORADO AIO 10/03/2016 NSC SEC"
2016-10-03 16:36:16,2016-10-03 16:36:16,35.61256,-105.47168,33,125,19315.00,"ELDORADO AIO 10/03/2016 NSC SEC"
2016-10-03 16:38:16,2016-10-03 16:38:16,35.61199,-105.46331,19,46,19836.00,"ELDORADO AIO 10/03/2016 NSC SEC"
2016-10-03 16:40:16,2016-10-03 16:40:16,35.61877,-105.46681,37,353,20339.00,"ELDORADO AIO 10/03/2016 NSC SEC"
2016-10-03 16:42:16,2016-10-03 16:50:58,35.62587,-105.46162,13,64,20823.00,"ELDORADO AIO 10/03/2016 NSC SEC"
2016-10-03 20:56:17,2016-10-03 21:44:11,35.71818,-105.05433,0,159,2038.00,"ELDORADO AIO 10/03/2016 NSC SEC"
2016-10-03 21:56:09,2016-10-03 21:56:09,35.71832,-105.05479,4,293,2036.00,"ELDORADO AIO 10/03/2016 NSC SEC"
